Torna al catalogo

STARLINK-31091

AttivoComunicazioniVLEO
NORAD 58629·PAYLOAD·🇺🇸 United States

Lanciato Dec 23, 2023 da Cape Canaveral Space Force Station

Loading…

Prossimi Passaggi (prossime 24 ore)

TLE

AggiornatoSource: CelesTrak SupGP

Epoca: Sep 15, 2026, 03:26 UTC

1 58629C 23203M   26258.14354167 -.00020771  00000+0 -75228-3 0  2587
2 58629  43.0006  80.8012 0001449 270.3948  84.1958 15.27590084    12

Traccia STARLINK-31091 in tempo reale con AllMySat

Download on the App Store